Sussex, NJ

8:12 AM EDT on June 26, 2017 (GMT -0400)
Sussex

Weather History for KFWN - October, 2013

Change the Weather History Date:

Tuesday, October 15, 2013

  Actual Average Record
Temperature  
Mean Temperature 56 °F -  
Max Temperature 72 °F 63 °F 83 °F (1956)
Min Temperature 41 °F 39 °F 23 °F (1981)
Degree Days  
Heating Degree Days 9    
Growing Degree Days 6 (Base 50)    
Moisture  
Dew Point 48 °F    
Average Humidity 82    
Maximum Humidity 100    
Minimum Humidity 53    
Precipitation  
Precipitation 0.00 in - - ()
Sea Level Pressure  
Sea Level Pressure 30.20 in    
Wind  
Wind Speed 1 mph (ESE)    
Max Wind Speed 6 mph    
Max Gust Speed -    
Visibility 9 miles    
Events      
Averages and records for this station are not official NWS values.
T = Trace of Precipitation, MM = Missing Value Source: NWS Daily Summary

Daily Weather History Graph

Daily Weather History Graph

Search for Another Location

Airport or City:

Trip Planner

Search our weather history database for the weather conditions in past years. The results will help you decide how hot, cold, wet, or windy it might be!

Date:

Astronomy

Oct. 15, 2013 Rise Set
Actual Time 7:10 AM EDT 6:17 PM EDT
Civil Twilight 6:42 AM EDT 6:45 PM EDT
Nautical Twilight 6:10 AM EDT 7:17 PM EDT
Astronomical Twilight 5:38 AM EDT 7:48 PM EDT
Moon 4:22 PM EDT (10/15) 3:28 AM EDT (10/15)
Length of Visible Light 12h 02m
Length of Day
11h 06m
Waxing Gibbous, 87% of the Moon is Illuminated
Oct 15
Waxing Gibbous
Oct 18
Full
Oct 26
Last Quarter
Nov 3
New
Nov 10
First Quarter

Hourly Weather History & Observations

Time (EDT) Temp. Dew Point Humidity Pressure Visibility Wind Dir Wind Speed Gust Speed Precip Events Conditions
12:53 AM 46.0 °F 45.0 °F 96% 30.27 in 8.0 mi Calm Calm - N/A   Clear
1:53 AM 44.1 °F 44.1 °F 100% 30.26 in 7.0 mi Calm Calm - N/A   Clear
2:53 AM 44.1 °F 43.0 °F 96% 30.26 in 8.0 mi Calm Calm - N/A   Clear
3:53 AM 44.1 °F 43.0 °F 96% 30.25 in 9.0 mi Calm Calm - N/A   Overcast
4:53 AM 43.0 °F 43.0 °F 100% 30.25 in 7.0 mi Calm Calm - N/A   Partly Cloudy
5:53 AM 42.1 °F 42.1 °F 100% 30.25 in 7.0 mi Calm Calm - N/A   Clear
6:53 AM 42.1 °F 41.0 °F 96% 30.24 in 7.0 mi Calm Calm - N/A   Clear
7:30 AM 41.0 °F 41.0 °F 100% 30.25 in 5.0 mi Calm Calm - N/A   Partly Cloudy
7:53 AM 43.0 °F 43.0 °F 100% 30.26 in 7.0 mi Calm Calm - N/A   Clear
8:53 AM 48.0 °F 48.0 °F 100% 30.26 in 8.0 mi Calm Calm - N/A   Clear
9:53 AM 57.0 °F 51.1 °F 81% 30.26 in 10.0 mi Calm Calm - N/A   Clear
10:53 AM 63.0 °F 54.0 °F 72% 30.24 in 10.0 mi Variable 5.8 mph - N/A   Clear
11:53 AM 66.9 °F 55.0 °F 66% 30.22 in 10.0 mi Calm Calm - N/A   Clear
12:53 PM 69.1 °F 55.0 °F 61% 30.20 in 10.0 mi Variable 3.5 mph - N/A   Scattered Clouds
1:53 PM 69.1 °F 53.1 °F 57% 30.17 in 10.0 mi ESE 3.5 mph - N/A   Overcast
2:53 PM 71.1 °F 53.1 °F 53% 30.15 in 10.0 mi Calm Calm - N/A   Overcast
3:53 PM 70.0 °F 53.1 °F 55% 30.13 in 10.0 mi East 3.5 mph - N/A   Mostly Cloudy
4:53 PM 70.0 °F 53.1 °F 55% 30.12 in 10.0 mi Variable 3.5 mph - N/A   Clear
5:53 PM 66.9 °F 52.0 °F 59% 30.14 in 10.0 mi SE 4.6 mph - N/A   Clear
6:53 PM 59.0 °F 52.0 °F 78% 30.15 in 10.0 mi Calm Calm - N/A   Clear
7:53 PM 60.1 °F 51.1 °F 72% 30.16 in 10.0 mi Calm Calm - N/A   Clear
8:53 PM 55.9 °F 50.0 °F 80% 30.16 in 10.0 mi Calm Calm - N/A   Clear
9:53 PM 52.0 °F 48.0 °F 86% 30.15 in 10.0 mi Calm Calm - N/A   Clear
10:53 PM 50.0 °F 48.0 °F 93% 30.15 in 10.0 mi Calm Calm - N/A   Clear
11:53 PM 48.9 °F 48.0 °F 97% 30.13 in 10.0 mi Calm Calm - N/A   Clear